Location: Unnamed
(23.5608°S, 46.6833°W)
Time: 16:42:29
(UTC-03:00)

VELOX 1 - Pass Details

Date: 27 March 2023
Orbit: 617 x 630 km, 98.4° (Epoch: 01 June)

Event Time Altitude Azimuth Distance (km) Brightness Sun altitude
Rises 05:13:49 0° 138° (SE) 2,945 ? -14.4°
Reaches altitude 10° 05:17:28 10° 106° (ESE) 2,026 ? -13.6°
Maximum altitude 05:19:07 12° 84° (E) 1,895 ? -13.2°
Drops below altitude 10° 05:20:46 10° 62° (ENE) 2,016 ? -12.8°
Sets 05:24:21 0° 30° (NNE) 2,910 ? -12.0°
